Погода в Молодовске

Россия / Забайкальский край     52°15′38″N   117°52′25″E
темп.,
°C
ветер,
м/с
пор.,
м/с
влажн.,
%
обл.,
%
осадки,
мм/ч
давл.,
гПа
погр.,
м
7 мая, пт
пт700:00+5ююз1161100 0.0 100419
03:00+5св1163100 0.0 100212
06:00+4св2377100 0.2 100195
09:00+7всв3656100 0.2 1000859
12:00+11всв6838100 0.1 9992179
15:00+12св6827100 0.1 9982763
18:00+12св683114 0.0 9992546
21:00+7ссв410485 0.0 1003499
8 мая, сб
сб800:00+4ссв39675 0.0 1006399
03:00+1ссз11767 0.0 100824
06:00+1ссз127134 0.0 100951
09:00+7ссв373835 0.0 10071792
12:00+9ссз4639100 0.2 10062113
15:00+11ссз3529100 0.4 10042681
18:00+10ссв3432100 0.0 10042249
21:00+5всв235947 0.2 100792
9 мая, вс
вс900:00+2ссв11725 0.0 100916
03:000с11785 0.0 100911
06:00−1с11805 0.0 101011
09:00+7с35445 0.0 10091356
12:00+11с3529100 0.0 10072719
15:00+12ссв3526100 0.0 10062737
18:00+11с2429100 0.0 10072373
21:00+6св224577 0.0 100915
10 мая, пн
пн1000:00+3всв11636 0.0 101210
03:00+1св11730 0.0 101410
06:000всв11795 0.0 101514
09:00+8всв12490 0.0 1013601
12:00+13всв22308 0.0 10112000
15:00+16св112399 0.0 10092748
18:00+14св332638 0.0 10082381
21:00+8всв2352100 0.0 101055
11 мая, вт
вт1100:00+5всв226495 0.0 101130
03:00+3всв2272100 0.0 101038
06:00+3св2474100 0.0 1009116
09:00+9всв5953100 0.0 1006745
12:00+11всв5744100 0.0 10051949
15:00+10всв5849100 0.1 10051475
18:00+10св5749100 0.0 10051567
21:00+7всв3770100 0.0 1006428